Year,Month,Day,Hour,Minute,Value (Times are PST for windgust in km/hr)
2018,12,21,00,00,16.10
2018,12,21,00,01,19.30
2018,12,21,00,02,17.70
2018,12,21,00,03,22.50
2018,12,21,00,04,24.20
2018,12,21,00,05,6.40
2018,12,21,00,06,24.20
2018,12,21,00,07,19.30
2018,12,21,00,08,16.10
2018,12,21,00,09,19.30
2018,12,21,00,10,24.20
2018,12,21,00,11,20.90
2018,12,21,00,12,9.60
2018,12,21,00,13,14.50
2018,12,21,00,14,16.10
2018,12,21,00,15,11.30
2018,12,21,00,16,6.40
2018,12,21,00,17,6.40
2018,12,21,00,18,4.80
2018,12,21,00,19,8.10
2018,12,21,00,20,6.40
2018,12,21,00,21,3.20
2018,12,21,00,22,4.80
2018,12,21,00,23,4.80
2018,12,21,00,24,4.80
2018,12,21,00,25,4.80
2018,12,21,00,26,4.80
2018,12,21,00,27,3.20
2018,12,21,00,28,4.80
2018,12,21,00,29,3.20
2018,12,21,00,30,9.60
2018,12,21,00,31,9.60
2018,12,21,00,32,4.80
2018,12,21,00,33,4.80
2018,12,21,00,34,4.80
2018,12,21,00,35,4.80
2018,12,21,00,36,8.10
2018,12,21,00,37,3.20
2018,12,21,00,38,4.80
2018,12,21,00,40,8.10
2018,12,21,00,41,6.40
2018,12,21,00,42,8.10
2018,12,21,00,43,4.80
2018,12,21,00,44,6.40
2018,12,21,00,45,8.10
2018,12,21,00,46,8.10
2018,12,21,00,47,4.80
2018,12,21,00,48,3.20
2018,12,21,00,49,3.20
2018,12,21,00,50,4.80
2018,12,21,00,51,3.20
2018,12,21,00,52,3.20
2018,12,21,00,53,6.40
2018,12,21,00,54,8.10
2018,12,21,00,55,4.80
2018,12,21,00,56,3.20
2018,12,21,00,57,4.80
2018,12,21,00,58,3.20
2018,12,21,01,00,1.60
2018,12,21,01,01,1.60
2018,12,21,01,02,1.60
2018,12,21,01,03,3.20
2018,12,21,01,10,1.60
2018,12,21,01,11,1.60
2018,12,21,01,12,3.20
2018,12,21,01,13,3.20
2018,12,21,01,15,3.20
2018,12,21,01,20,3.20
2018,12,21,01,21,4.80
2018,12,21,01,23,1.60
2018,12,21,01,29,1.60
2018,12,21,01,30,3.20
2018,12,21,01,31,1.60
2018,12,21,01,34,1.60
2018,12,21,01,49,3.20
2018,12,21,01,54,1.60
2018,12,21,02,07,3.20
2018,12,21,02,08,3.20
2018,12,21,02,09,3.20
2018,12,21,02,10,3.20
2018,12,21,02,11,3.20
2018,12,21,02,13,1.60
2018,12,21,02,21,3.20
2018,12,21,02,22,3.20
2018,12,21,02,24,1.60
2018,12,21,02,26,1.60
2018,12,21,02,27,1.60
2018,12,21,02,29,3.20
2018,12,21,02,30,3.20
2018,12,21,02,31,4.80
2018,12,21,02,32,3.20
2018,12,21,02,33,4.80
2018,12,21,02,34,3.20
2018,12,21,02,36,1.60
2018,12,21,02,37,3.20
2018,12,21,02,40,1.60
2018,12,21,02,41,3.20
2018,12,21,02,42,3.20
2018,12,21,02,47,1.60
2018,12,21,02,48,9.60
2018,12,21,02,49,11.30
2018,12,21,02,50,4.80
2018,12,21,02,51,1.60
2018,12,21,02,54,3.20
2018,12,21,02,55,4.80
2018,12,21,02,56,4.80
2018,12,21,02,57,3.20
2018,12,21,02,58,1.60
2018,12,21,02,59,3.20
2018,12,21,03,00,1.60
2018,12,21,03,01,1.60
2018,12,21,03,02,3.20
2018,12,21,03,03,4.80
2018,12,21,03,04,1.60
2018,12,21,03,05,3.20
2018,12,21,03,07,1.60
2018,12,21,03,12,1.60
2018,12,21,03,13,3.20
2018,12,21,03,14,3.20
2018,12,21,03,15,3.20
2018,12,21,03,16,1.60
2018,12,21,03,17,1.60
2018,12,21,03,18,4.80
2018,12,21,03,19,3.20
2018,12,21,03,21,3.20
2018,12,21,03,22,4.80
2018,12,21,03,23,4.80
2018,12,21,03,24,4.80
2018,12,21,03,25,4.80
2018,12,21,03,26,4.80
2018,12,21,03,27,4.80
2018,12,21,03,28,4.80
2018,12,21,03,29,4.80
2018,12,21,03,30,3.20
2018,12,21,03,31,4.80
2018,12,21,03,32,6.40
2018,12,21,03,33,4.80
2018,12,21,03,34,3.20
2018,12,21,03,35,1.60
2018,12,21,03,36,3.20
2018,12,21,03,37,4.80
2018,12,21,03,38,3.20
2018,12,21,03,39,1.60
2018,12,21,03,43,3.20
2018,12,21,03,48,3.20
2018,12,21,03,49,4.80
2018,12,21,03,50,1.60
2018,12,21,03,51,4.80
2018,12,21,03,52,4.80
2018,12,21,03,53,3.20
2018,12,21,03,54,4.80
2018,12,21,03,55,4.80
2018,12,21,03,56,4.80
2018,12,21,03,57,3.20
2018,12,21,03,58,3.20
2018,12,21,03,59,3.20
2018,12,21,04,01,1.60
2018,12,21,04,08,1.60
2018,12,21,04,09,3.20
2018,12,21,04,10,3.20
2018,12,21,04,11,3.20
2018,12,21,04,12,3.20
2018,12,21,04,13,3.20
2018,12,21,04,19,3.20
2018,12,21,04,20,1.60
2018,12,21,04,21,1.60
2018,12,21,04,22,4.80
2018,12,21,04,23,6.40
2018,12,21,04,24,4.80
2018,12,21,04,27,1.60
2018,12,21,04,28,3.20
2018,12,21,04,29,4.80
2018,12,21,04,30,3.20
2018,12,21,04,31,3.20
2018,12,21,04,32,3.20
2018,12,21,04,33,3.20
2018,12,21,04,35,1.60
2018,12,21,04,37,3.20
2018,12,21,04,38,3.20
2018,12,21,04,39,1.60
2018,12,21,04,40,1.60
2018,12,21,04,41,3.20
2018,12,21,04,42,3.20
2018,12,21,04,43,3.20
2018,12,21,04,44,3.20
2018,12,21,04,45,3.20
2018,12,21,04,46,1.60
2018,12,21,04,48,1.60
2018,12,21,04,50,4.80
2018,12,21,04,51,4.80
2018,12,21,04,52,3.20
2018,12,21,04,56,3.20
2018,12,21,04,57,1.60
2018,12,21,04,59,3.20
2018,12,21,05,00,4.80
2018,12,21,05,01,3.20
2018,12,21,05,05,1.60
2018,12,21,05,13,3.20
2018,12,21,05,14,3.20
2018,12,21,05,15,3.20
2018,12,21,05,19,3.20
2018,12,21,05,20,3.20
2018,12,21,05,21,1.60
2018,12,21,05,37,3.20
2018,12,21,05,41,1.60
2018,12,21,05,42,3.20
2018,12,21,05,43,3.20
2018,12,21,05,46,1.60
2018,12,21,05,47,3.20
2018,12,21,05,48,4.80
2018,12,21,05,49,4.80
2018,12,21,05,50,3.20
2018,12,21,05,53,4.80
2018,12,21,05,54,4.80
2018,12,21,05,57,3.20
2018,12,21,05,58,3.20
2018,12,21,05,59,3.20
2018,12,21,06,00,3.20
2018,12,21,06,01,3.20
2018,12,21,06,02,4.80
2018,12,21,06,03,1.60
2018,12,21,06,06,1.60
2018,12,21,06,07,3.20
2018,12,21,06,08,3.20
2018,12,21,06,09,3.20
2018,12,21,06,12,3.20
2018,12,21,06,16,4.80
2018,12,21,06,17,3.20
2018,12,21,06,19,3.20
2018,12,21,06,20,4.80
2018,12,21,06,21,3.20
2018,12,21,06,24,3.20
2018,12,21,06,25,3.20
2018,12,21,06,26,3.20
2018,12,21,06,28,3.20
2018,12,21,06,29,3.20
2018,12,21,06,30,4.80
2018,12,21,06,31,3.20
2018,12,21,06,32,1.60
2018,12,21,06,33,1.60
2018,12,21,06,36,3.20
2018,12,21,06,37,6.40
2018,12,21,06,38,6.40
2018,12,21,06,39,1.60
2018,12,21,06,40,1.60
2018,12,21,06,41,4.80
2018,12,21,06,42,4.80
2018,12,21,06,43,4.80
2018,12,21,06,45,4.80
2018,12,21,06,46,4.80
2018,12,21,06,47,4.80
2018,12,21,06,48,3.20
2018,12,21,06,49,3.20
2018,12,21,06,50,1.60
2018,12,21,06,53,3.20
2018,12,21,06,54,3.20
2018,12,21,06,59,3.20
2018,12,21,07,00,3.20
2018,12,21,07,05,3.20
2018,12,21,07,10,4.80
2018,12,21,07,11,6.40
2018,12,21,07,12,6.40
2018,12,21,07,13,4.80
2018,12,21,07,14,3.20
2018,12,21,07,16,4.80
2018,12,21,07,17,1.60
2018,12,21,07,21,1.60
2018,12,21,07,22,3.20
2018,12,21,07,23,4.80
2018,12,21,07,24,3.20
2018,12,21,07,25,3.20
2018,12,21,07,26,1.60
2018,12,21,07,27,1.60
2018,12,21,07,28,1.60
2018,12,21,07,29,3.20
2018,12,21,07,33,1.60
2018,12,21,07,34,3.20
2018,12,21,07,35,4.80
2018,12,21,07,36,3.20
2018,12,21,07,37,1.60
2018,12,21,07,43,4.80
2018,12,21,07,44,3.20
2018,12,21,07,54,3.20
2018,12,21,07,55,3.20
2018,12,21,07,57,3.20
2018,12,21,08,00,3.20
2018,12,21,08,01,3.20
2018,12,21,08,04,3.20
2018,12,21,08,06,4.80
2018,12,21,08,07,3.20
2018,12,21,08,09,3.20
2018,12,21,08,12,3.20
2018,12,21,08,13,1.60
2018,12,21,08,17,3.20
2018,12,21,08,18,1.60
2018,12,21,08,28,1.60
2018,12,21,08,29,4.80
2018,12,21,08,30,1.60
2018,12,21,08,31,4.80
2018,12,21,08,32,6.40
2018,12,21,08,33,4.80
2018,12,21,08,35,1.60
2018,12,21,08,36,3.20
2018,12,21,08,37,6.40
2018,12,21,08,38,4.80
2018,12,21,08,40,1.60
2018,12,21,08,42,4.80
2018,12,21,08,43,4.80
2018,12,21,08,44,1.60
2018,12,21,08,45,3.20
2018,12,21,08,46,1.60
2018,12,21,08,47,1.60
2018,12,21,08,55,1.60
2018,12,21,08,56,1.60
2018,12,21,09,00,1.60
2018,12,21,09,04,1.60
2018,12,21,09,18,3.20
2018,12,21,09,19,1.60
2018,12,21,09,28,1.60
2018,12,21,09,46,1.60
2018,12,21,09,56,3.20
2018,12,21,09,57,3.20
2018,12,21,10,09,1.60
2018,12,21,10,10,1.60
2018,12,21,10,24,1.60
2018,12,21,10,33,3.20
2018,12,21,10,34,3.20
2018,12,21,10,35,4.80
2018,12,21,10,36,3.20
2018,12,21,10,42,1.60
2018,12,21,10,43,1.60
2018,12,21,10,45,3.20
2018,12,21,10,46,3.20
2018,12,21,10,48,4.80
2018,12,21,10,49,1.60
2018,12,21,10,51,3.20
2018,12,21,11,06,1.60
2018,12,21,11,11,1.60
2018,12,21,11,12,3.20
2018,12,21,11,13,1.60
2018,12,21,11,14,3.20
2018,12,21,11,15,3.20
2018,12,21,11,16,3.20
2018,12,21,11,20,1.60
2018,12,21,11,24,1.60
2018,12,21,11,25,3.20
2018,12,21,11,26,3.20
2018,12,21,11,27,4.80
2018,12,21,11,28,4.80
2018,12,21,11,29,4.80
2018,12,21,11,30,3.20
2018,12,21,11,31,3.20
2018,12,21,11,32,3.20
2018,12,21,11,33,3.20
2018,12,21,11,34,4.80
2018,12,21,11,35,3.20
2018,12,21,11,37,3.20
2018,12,21,11,38,4.80
2018,12,21,11,39,1.60
2018,12,21,11,40,1.60
2018,12,21,11,41,1.60
2018,12,21,11,42,4.80
2018,12,21,11,43,6.40
2018,12,21,11,44,8.10
2018,12,21,11,45,8.10
2018,12,21,11,46,8.10
2018,12,21,11,47,6.40
2018,12,21,11,48,4.80
2018,12,21,11,49,4.80
2018,12,21,11,50,3.20
2018,12,21,11,51,4.80
2018,12,21,11,52,1.60
2018,12,21,11,56,1.60
2018,12,21,11,57,3.20
2018,12,21,11,58,1.60
2018,12,21,11,59,4.80
2018,12,21,12,00,4.80
2018,12,21,12,01,6.40
2018,12,21,12,02,6.40
2018,12,21,12,03,4.80
2018,12,21,12,04,3.20
2018,12,21,12,05,3.20
2018,12,21,12,06,1.60
2018,12,21,12,08,3.20
2018,12,21,12,09,1.60
2018,12,21,12,10,3.20
2018,12,21,12,11,4.80
2018,12,21,12,12,4.80
2018,12,21,12,13,4.80
2018,12,21,12,14,6.40
2018,12,21,12,15,6.40
2018,12,21,12,16,3.20
2018,12,21,12,17,4.80
2018,12,21,12,18,4.80
2018,12,21,12,19,3.20
2018,12,21,12,20,4.80
2018,12,21,12,21,3.20
2018,12,21,12,22,4.80
2018,12,21,12,23,4.80
2018,12,21,12,24,3.20
2018,12,21,12,25,3.20
2018,12,21,12,26,4.80
2018,12,21,12,27,4.80
2018,12,21,12,28,4.80
2018,12,21,12,29,3.20
2018,12,21,12,30,1.60
2018,12,21,12,31,3.20
2018,12,21,12,32,4.80
2018,12,21,12,33,3.20
2018,12,21,12,34,3.20
2018,12,21,12,35,1.60
2018,12,21,12,36,1.60
2018,12,21,12,40,1.60
2018,12,21,12,46,1.60
2018,12,21,12,47,1.60
2018,12,21,12,48,1.60
2018,12,21,12,56,1.60
2018,12,21,12,57,3.20
2018,12,21,12,58,3.20
2018,12,21,12,59,3.20
2018,12,21,13,00,1.60
2018,12,21,13,01,1.60
2018,12,21,13,02,1.60
2018,12,21,13,03,4.80
2018,12,21,13,05,3.20
2018,12,21,13,06,3.20
2018,12,21,13,11,1.60
2018,12,21,13,21,1.60
2018,12,21,13,24,3.20
2018,12,21,13,25,4.80
2018,12,21,13,26,1.60
2018,12,21,13,27,4.80
2018,12,21,13,28,4.80
2018,12,21,13,29,3.20
2018,12,21,13,30,1.60
2018,12,21,13,32,1.60
2018,12,21,13,33,1.60
2018,12,21,13,34,4.80
2018,12,21,13,35,4.80
2018,12,21,13,36,1.60
2018,12,21,13,37,3.20
2018,12,21,13,38,4.80
2018,12,21,13,39,3.20
2018,12,21,13,40,1.60
2018,12,21,13,41,3.20
2018,12,21,13,42,3.20
2018,12,21,13,43,1.60
2018,12,21,13,45,3.20
2018,12,21,13,46,3.20
2018,12,21,13,47,3.20
2018,12,21,13,48,1.60
2018,12,21,13,54,1.60
2018,12,21,16,35,1.60
2018,12,21,17,00,1.60
2018,12,21,17,06,3.20
2018,12,21,17,14,1.60
2018,12,21,17,23,1.60
2018,12,21,17,27,1.60
2018,12,21,18,21,1.60
2018,12,21,18,22,1.60
2018,12,21,18,28,1.60
2018,12,21,18,42,3.20
2018,12,21,18,43,3.20
2018,12,21,18,45,3.20
2018,12,21,18,46,1.60
2018,12,21,18,47,1.60
2018,12,21,19,39,3.20
2018,12,21,19,40,3.20
2018,12,21,19,41,3.20
2018,12,21,19,45,3.20
2018,12,21,19,46,3.20
2018,12,21,19,48,1.60
2018,12,21,19,49,1.60
2018,12,21,19,51,1.60
2018,12,21,19,52,3.20
2018,12,21,19,53,1.60
2018,12,21,19,54,3.20
2018,12,21,19,55,3.20
2018,12,21,19,56,1.60
2018,12,21,20,00,3.20
2018,12,21,20,07,3.20
2018,12,21,20,08,3.20
2018,12,21,20,09,3.20
2018,12,21,20,12,1.60
2018,12,21,20,13,3.20
2018,12,21,20,28,1.60
2018,12,21,20,38,1.60
2018,12,21,20,39,1.60
2018,12,21,20,44,1.60
2018,12,21,20,49,3.20
2018,12,21,20,50,1.60
2018,12,21,20,54,1.60
2018,12,21,21,03,3.20
2018,12,21,21,04,1.60
2018,12,21,21,07,1.60
2018,12,21,21,08,1.60
2018,12,21,21,09,3.20
2018,12,21,21,13,1.60
2018,12,21,21,14,3.20
2018,12,21,21,15,3.20
2018,12,21,21,16,1.60
2018,12,21,21,17,1.60
2018,12,21,21,20,3.20
2018,12,21,21,21,3.20
2018,12,21,21,26,1.60
2018,12,21,21,30,3.20
2018,12,21,21,31,3.20
2018,12,21,21,33,3.20
2018,12,21,21,34,3.20
2018,12,21,21,51,1.60
2018,12,21,21,58,1.60
2018,12,21,22,02,1.60
2018,12,21,22,04,1.60
2018,12,21,22,06,3.20
2018,12,21,22,07,11.30
2018,12,21,22,08,11.30
2018,12,21,22,09,11.30
2018,12,21,22,10,8.10
2018,12,21,22,11,11.30
2018,12,21,22,12,11.30
2018,12,21,22,13,9.60
2018,12,21,22,14,16.10
2018,12,21,22,15,14.50
2018,12,21,22,16,6.40
2018,12,21,22,17,9.60
2018,12,21,22,18,9.60
2018,12,21,22,19,9.60
2018,12,21,22,20,11.30
2018,12,21,22,21,16.10
2018,12,21,22,22,11.30
2018,12,21,22,23,9.60
2018,12,21,22,24,6.40
2018,12,21,22,25,11.30
2018,12,21,22,26,12.90
2018,12,21,22,27,9.60
2018,12,21,22,28,9.60
2018,12,21,22,29,4.80
2018,12,21,22,30,14.50
2018,12,21,22,31,11.30
2018,12,21,22,32,9.60
2018,12,21,22,33,12.90
2018,12,21,22,34,11.30
2018,12,21,22,35,6.40
2018,12,21,22,36,6.40
2018,12,21,22,37,12.90
2018,12,21,22,38,12.90
2018,12,21,22,39,11.30
2018,12,21,22,40,11.30
2018,12,21,22,41,12.90
2018,12,21,22,42,8.10
2018,12,21,22,43,9.60
2018,12,21,22,44,11.30
2018,12,21,22,45,14.50
2018,12,21,22,46,17.70
2018,12,21,22,47,14.50
2018,12,21,22,48,14.50
2018,12,21,22,49,14.50
2018,12,21,22,50,9.60
2018,12,21,22,51,16.10
2018,12,21,22,52,16.10
2018,12,21,22,53,8.10
2018,12,21,22,54,11.30
2018,12,21,22,55,11.30
2018,12,21,22,56,11.30
2018,12,21,22,57,14.50
2018,12,21,22,58,11.30
2018,12,21,22,59,14.50
2018,12,21,23,00,11.30
2018,12,21,23,01,11.30
2018,12,21,23,02,9.60
2018,12,21,23,03,9.60
2018,12,21,23,04,12.90
2018,12,21,23,05,11.30
2018,12,21,23,06,9.60
2018,12,21,23,07,11.30
2018,12,21,23,08,9.60
2018,12,21,23,09,11.30
2018,12,21,23,10,16.10
2018,12,21,23,11,14.50
2018,12,21,23,12,12.90
2018,12,21,23,13,11.30
2018,12,21,23,14,11.30
2018,12,21,23,15,8.10
2018,12,21,23,16,11.30
2018,12,21,23,17,14.50
2018,12,21,23,18,16.10
2018,12,21,23,19,9.60
2018,12,21,23,20,11.30
2018,12,21,23,21,11.30
2018,12,21,23,22,8.10
2018,12,21,23,23,9.60
2018,12,21,23,24,8.10
2018,12,21,23,25,8.10
2018,12,21,23,26,11.30
2018,12,21,23,27,11.30
2018,12,21,23,28,9.60
2018,12,21,23,29,9.60
2018,12,21,23,30,16.10
2018,12,21,23,31,9.60
2018,12,21,23,32,16.10
2018,12,21,23,33,8.10
2018,12,21,23,34,14.50
2018,12,21,23,35,11.30
2018,12,21,23,36,8.10
2018,12,21,23,37,9.60
2018,12,21,23,38,9.60
2018,12,21,23,39,9.60
2018,12,21,23,40,8.10
2018,12,21,23,41,8.10
2018,12,21,23,42,9.60
2018,12,21,23,43,6.40
2018,12,21,23,44,6.40
2018,12,21,23,45,8.10
2018,12,21,23,46,6.40
2018,12,21,23,47,9.60
2018,12,21,23,48,11.30
2018,12,21,23,49,8.10
2018,12,21,23,50,6.40
2018,12,21,23,51,8.10
2018,12,21,23,52,6.40
2018,12,21,23,53,1.60
2018,12,21,23,54,4.80
2018,12,21,23,55,8.10
2018,12,21,23,56,8.10
2018,12,21,23,57,6.40
2018,12,21,23,58,14.50
2018,12,21,23,59,12.90
